TimeCST,TemperatureF,Dew PointF,Humidity,Sea Level PressureIn,VisibilityMPH,Wind Direction,Wind SpeedMPH,Gust SpeedMPH,PrecipitationIn,Events,Conditions,WindDirDegrees,DateUTC
12:15 AM,5.0,1.4,85,30.14,10.0,West,10.4,-,N/A,,Clear,270,2013-01-14 06:15:00
12:35 AM,5.0,1.4,85,30.14,10.0,West,9.2,-,N/A,,Clear,280,2013-01-14 06:35:00
1:15 AM,5.0,1.4,85,30.16,10.0,West,8.1,-,N/A,,Clear,280,2013-01-14 07:15:00
1:35 AM,5.0,1.4,85,30.16,10.0,West,8.1,-,N/A,,Clear,280,2013-01-14 07:35:00
1:55 AM,3.2,1.4,92,30.18,10.0,West,9.2,-,N/A,,Clear,270,2013-01-14 07:55:00
2:15 AM,3.2,1.4,92,30.20,10.0,West,8.1,-,N/A,,Clear,270,2013-01-14 08:15:00
2:55 AM,3.2,1.4,92,30.21,10.0,West,5.8,-,N/A,,Clear,260,2013-01-14 08:55:00
3:15 AM,3.2,1.4,92,30.21,10.0,West,6.9,-,N/A,,Clear,270,2013-01-14 09:15:00
3:35 AM,3.2,1.4,92,30.21,10.0,West,5.8,-,N/A,,Clear,260,2013-01-14 09:35:00
3:55 AM,3.2,-0.4,85,30.22,10.0,WSW,4.6,-,N/A,,Clear,240,2013-01-14 09:55:00
4:15 AM,3.2,-0.4,85,30.23,10.0,WSW,4.6,-,N/A,,Clear,250,2013-01-14 10:15:00
4:35 AM,3.2,1.4,92,30.23,10.0,WSW,6.9,-,N/A,,Clear,250,2013-01-14 10:35:00
5:45 AM,1.4,-0.4,92,30.25,10.0,WSW,4.6,-,N/A,,Clear,250,2013-01-14 11:45:00
6:45 AM,1.4,-0.4,92,30.28,10.0,SW,5.8,-,N/A,,Clear,230,2013-01-14 12:45:00
7:45 AM,1.4,-0.4,92,30.31,10.0,South,5.8,-,N/A,,Clear,190,2013-01-14 13:45:00
8:45 AM,5.0,1.4,85,30.34,10.0,SW,8.1,-,N/A,,Clear,230,2013-01-14 14:45:00
9:45 AM,6.8,3.2,85,30.33,10.0,WSW,6.9,-,N/A,,Clear,240,2013-01-14 15:45:00
10:45 AM,10.4,6.8,85,30.33,10.0,SW,6.9,-,N/A,,Clear,230,2013-01-14 16:45:00
11:45 AM,12.2,6.8,79,30.30,10.0,WSW,9.2,17.3,N/A,,Scattered Clouds,240,2013-01-14 17:45:00
12:29 PM,14.0,8.6,79,30.31,7.0,WSW,11.5,-,N/A,Snow,Light Snow,240,2013-01-14 18:29:00
12:50 PM,14.0,8.6,79,30.31,7.0,WSW,13.8,20.7,N/A,Snow,Light Snow,240,2013-01-14 18:50:00
1:45 PM,14.0,8.6,79,30.31,3.0,West,11.5,-,N/A,Snow,Light Snow,260,2013-01-14 19:45:00
2:55 PM,15.8,8.6,73,30.31,10.0,WSW,12.7,17.3,N/A,,Overcast,240,2013-01-14 20:55:00
3:50 PM,14.0,8.6,79,30.32,10.0,WSW,12.7,-,N/A,,Mostly Cloudy,250,2013-01-14 21:50:00
4:50 PM,12.2,6.8,79,30.33,10.0,West,11.5,-,N/A,,Mostly Cloudy,260,2013-01-14 22:50:00
5:50 PM,14.0,8.6,79,30.32,10.0,NNE,6.9,-,N/A,,Overcast,25,2013-01-14 23:50:00
6:50 PM,14.0,8.6,79,30.33,10.0,West,10.4,-,N/A,Snow,Light Snow,260,2013-01-15 00:50:00
7:50 PM,12.2,8.6,85,30.32,10.0,West,6.9,-,N/A,,Overcast,270,2013-01-15 01:50:00
8:50 PM,10.4,6.8,85,30.31,10.0,West,4.6,-,N/A,,Clear,260,2013-01-15 02:50:00
9:15 PM,10.4,8.6,92,30.31,10.0,WNW,5.8,-,N/A,,Clear,290,2013-01-15 03:15:00
9:35 PM,10.4,8.6,92,30.32,10.0,WNW,6.9,-,N/A,,Clear,300,2013-01-15 03:35:00
9:45 PM,8.6,6.8,92,30.32,10.0,NW,9.2,-,N/A,,Clear,310,2013-01-15 03:45:00
9:55 PM,10.4,6.8,85,30.32,10.0,NW,8.1,-,N/A,,Clear,310,2013-01-15 03:55:00
10:15 PM,10.4,5.0,79,30.32,10.0,NW,6.9,-,N/A,,Clear,310,2013-01-15 04:15:00
10:35 PM,8.6,5.0,85,30.32,10.0,WNW,4.6,-,N/A,,Clear,290,2013-01-15 04:35:00
10:55 PM,8.6,5.0,85,30.31,10.0,West,3.5,-,N/A,,Clear,280,2013-01-15 04:55:00
11:15 PM,6.8,5.0,92,30.31,10.0,Calm,Calm,-,N/A,,Clear,0,2013-01-15 05:15:00
11:35 PM,5.0,3.2,92,30.32,10.0,Calm,Calm,-,N/A,,Clear,0,2013-01-15 05:35:00
11:55 PM,5.0,5.0,100,30.33,10.0,Calm,Calm,-,N/A,,Clear,0,2013-01-15 05:55:00